Temp
64 63 63 63 63 62 62 62 62 61 62 62 61 61 61 61 60 60 60 60 60 60 61 60 60 59 54 46 46 61 64 64 63 61 56 54 48 47 46 52 50 49 53 57 59 57 56
63 63 63 63 62 62 62 62 61 61 61 62 62 60 60 60 60 60 59 60 60 60 60 60 59 58 50 39 56 61 60 61 60 59 56 56 51 52 51 52 52 53 54 55 56 55 56
63 63 63 63 62 62 62 62 61 61 61 62 60 60 59 60 60 59 59 59 59 59 60 60 59 56 48 46 60 59 60 58 62 59 54 57 57 52 49 48 52 53 49 50 52 53 52
62 62 62 62 62 61 61 61 61 61 61 61 61 59 59 59 59 59 59 59 59 59 59 59 60 50 43 59 58 59 59 56 61 62 58 59 57 54 47 50 49 47 47 42 49 52 52
62 62 62 62 62 62 61 60 60 60 61 61 59 60 58 58 59 58 59 59 59 59 59 59 48 45 39 61 53 59 59 55 57 58 59 60 56 49 46 42 38 39 34 39 43 53 50
61 62 61 62 61 60 61 61 60 60 60 59 59 58 58 57 57 58 58 58 58 55 55 55 53 39 47 46 54 55 58 57 54 53 51 50 49 42 39 39 32 34 32 37 40 47 48
61 61 61 61 61 60 60 60 60 60 59 59 59 57 58 57 57 58 52 46 42 39 44 39 41 41 46 52 56 51 55 54 52 49 39 45 39 37 37 40 39 40 38 36 42 50 46
61 61 61 61 60 60 60 60 59 59 59 59 58 57 57 57 57 57 48 41 43 44 36 46 46 45 48 49 44 48 53 46 45 38 38 38 35 41 45 45 42 41 36 35 42 50 48
60 60 60 60 60 59 59 59 59 59 58 58 57 56 57 57 56 49 44 44 51 49 37 42 45 43 44 47 42 44 48 45 40 36 34 37 41 46 45 43 40 35 36 36 38 44 47
60 59 59 60 60 59 59 58 58 58 57 57 57 56 57 56 48 44 42 50 49 49 30 35 41 43 46 45 40 50 49 46 43 35 38 38 45 43 42 41 41 34 42 42 41 39 31
59 59 59 59 59 58 58 58 58 57 57 56 57 57 56 55 43 42 47 49 48 45 21 37 40 49 46 42 42 43 52 48 38 39 39 35 41 40 39 41 47 39 44 42 39 35 35
58 58 58 58 58 58 58 58 57 57 56 57 56 56 55 51 50 47 48 48 48 24 20 33 39 39 38 42 41 45 45 50 47 42 42 40 45 43 41 44 47 44 40 38 37 33 23
58 57 57 58 58 58 58 57 57 56 57 56 56 55 53 50 43 49 50 43 26 20 37 32 34 38 37 37 39 42 39 36 36 31 32 37 39 41 42 40 43 41 34 22 21 20 21
57 57 57 57 57 57 57 56 56 56 57 56 55 52 54 50 48 48 45 34 18 31 34 40 39 38 35 39 39 41 37 34 40 39 33 33 28 38 40 38 36 37 36 25 21 20 23
57 56 57 57 57 57 57 56 56 56 56 55 52 44 44 50 51 50 41 18 23 25 38 37 37 34 34 39 40 39 38 37 40 40 33 32 31 41 40 40 41 36 29 35 24 20 18
56 56 56 57 56 56 56 56 56 56 55 54 41 41 42 48 53 47 36 28 29 38 41 39 33 36 33 37 36 37 36 43 40 41 40 34 31 39 42 42 41 38 41 32 25 16 18
56 56 56 56 56 55 56 56 56 55 55 52 41 41 44 50 51 41 23 29 36 44 43 39 38 37 37 37 40 37 34 40 43 40 40 36 34 35 41 36 35 36 30 31 32 26 20
56 56 56 55 55 55 55 55 55 55 55 46 38 37 45 50 39 38 26 35 45 42 43 41 41 41 39 38 35 33 33 37 46 44 37 38 34 31 35 42 41 36 33 33 25 22 22
56 56 55 55 55 55 54 54 55 55 53 40 35 39 48 47 34 30 36 40 42 41 41 41 40 42 40 36 34 36 36 42 46 43 39 40 33 28 29 36 38 37 38 35 33 29 22
56 55 55 54 54 54 54 54 54 54 53 41 35 30 38 43 41 33 33 36 37 43 42 43 41 42 39 36 37 33 36 44 47 47 49 46 33 29 25 29 34 32 36 37 35 30 33
55 55 55 54 54 54 54 54 54 53 52 41 33 32 34 28 34 35 36 37 37 40 42 42 39 39 37 32 33 33 36 39 45 48 43 41 27 28 33 36 33 32 33 36 34 36 31
55 55 54 54 54 53 53 53 53 52 49 34 31 31 34 32 35 33 36 36 37 40 40 37 38 39 38 35 34 33 36 34 35 37 37 38 28 29 27 34 33 31 34 35 38 38 37
55 54 54 54 53 53 53 53 53 52 45 32 31 33 33 34 34 38 35 38 37 38 41 44 43 41 38 37 38 38 39 39 39 37 34 34 27 22 20 29 30 26 33 34 34 38 38
55 54 54 54 53 53 53 53 53 51 44 35 32 30 31 30 32 36 37 38 36 36 38 41 43 41 41 43 42 40 40 39 39 35 38 31 28 24 18 24 14 32 36 39 36 39 41
55 54 54 53 53 53 53 53 53 51 49 36 33 32 30 27 29 32 34 34 36 36 39 42 41 41 42 41 37 34 32 33 34 35 33 36 30 23 20 19 28 33 34 34 33 35 38
55 54 54 53 53 52 52 52 53 52 49 37 34 34 31 29 26 30 29 31 27 29 37 40 42 40 41 38 35 27 24 29 29 34 41 41 40 30 25 20 20 32 37 40 39 29 40
55 54 54 53 53 52 52 52 52 52 50 40 36 36 32 28 30 30 26 27 31 30 32 34 37 36 38 33 31 28 25 31 28 28 29 33 34 27 26 25 29 37 40 41 27 32 41
54 54 53 53 52 52 52 52 52 51 50 41 37 38 34 29 30 34 35 30 30 29 27 32 33 34 33 30 30 29 28 29 27 29 29 30 26 26 28 26 20 39 38 32 40 41 42
54 54 53 53 52 52 52 52 52 51 50 44 35 40 40 32 32 34 36 37 36 35 31 31 30 35 33 35 34 33 29 32 26 25 30 28 33 32 31 30 40 40 41 44 44 42 43
MSLP
1022.11 1021.69 1021.34 1021.14 1020.95 1020.70 1020.31 1019.87 1019.49 1019.00 1018.50 1018.09 1017.83 1017.49 1017.14 1016.86 1016.46 1016.17 1015.70 1015.34 1014.98 1014.85 1014.63 1014.44 1014.33 1014.36 1014.49 1014.60 1014.34 1013.88 1013.54 1013.62 1013.49 1013.62 1014.09 1014.37 1014.93 1015.21 1014.97 1014.97 1015.30 1015.41 1015.16 1015.08 1015.83 1016.12 1016.53
1022.04 1021.63 1021.28 1021.04 1020.94 1020.62 1020.25 1019.79 1019.43 1018.97 1018.62 1018.20 1017.77 1017.46 1017.19 1016.78 1016.49 1016.24 1015.98 1015.56 1015.27 1015.06 1014.90 1014.73 1014.64 1014.64 1014.69 1014.67 1014.48 1013.96 1013.66 1013.21 1013.26 1013.43 1013.95 1014.23 1014.53 1014.87 1014.92 1014.90 1015.14 1014.76 1014.98 1015.37 1016.08 1016.25 1016.71
1021.87 1021.58 1021.23 1021.04 1020.77 1020.52 1020.14 1019.69 1019.33 1018.92 1018.57 1018.12 1017.93 1017.52 1017.19 1016.97 1016.69 1016.36 1016.06 1015.78 1015.47 1015.26 1015.16 1014.93 1014.86 1014.81 1014.61 1014.22 1013.87 1013.67 1013.26 1012.98 1012.58 1013.19 1013.65 1014.07 1014.09 1014.83 1014.78 1015.22 1015.22 1015.32 1015.67 1016.14 1016.14 1016.25 1017.00
1021.64 1021.46 1021.10 1021.02 1020.69 1020.49 1020.12 1019.70 1019.36 1018.97 1018.39 1018.16 1017.80 1017.61 1017.23 1016.81 1016.58 1016.31 1016.10 1015.78 1015.54 1015.40 1015.23 1015.07 1014.95 1015.07 1014.49 1013.58 1013.66 1013.57 1013.20 1012.50 1012.43 1012.99 1013.38 1013.81 1014.20 1014.74 1015.24 1015.22 1015.55 1016.00 1016.34 1016.10 1016.20 1016.62 1017.47
1021.42 1021.32 1020.92 1020.84 1020.62 1020.34 1020.03 1019.69 1019.26 1018.88 1018.42 1017.93 1017.74 1017.46 1017.23 1016.96 1016.40 1016.05 1015.84 1015.65 1015.45 1015.33 1015.14 1015.18 1015.27 1015.29 1014.39 1013.43 1013.40 1013.19 1012.96 1012.63 1012.67 1013.10 1013.65 1013.98 1014.56 1014.99 1015.34 1015.59 1016.23 1016.41 1016.56 1016.55 1016.78 1016.64 1016.81
1021.24 1021.07 1020.86 1020.53 1020.55 1020.30 1019.88 1019.51 1019.11 1018.72 1018.38 1017.94 1017.55 1017.35 1017.07 1016.75 1016.45 1016.03 1015.62 1015.40 1015.46 1015.40 1015.32 1015.29 1015.38 1015.64 1014.49 1014.17 1013.68 1013.40 1013.21 1013.15 1013.00 1013.59 1014.36 1014.51 1015.06 1015.35 1015.59 1015.53 1015.10 1015.98 1016.42 1016.14 1016.05 1016.16 1016.43
1021.11 1020.86 1020.75 1020.38 1020.31 1020.10 1019.70 1019.34 1018.93 1018.61 1018.30 1017.82 1017.46 1017.28 1016.99 1016.73 1016.41 1016.01 1015.92 1015.78 1016.13 1016.03 1015.77 1015.76 1015.75 1015.42 1014.93 1014.35 1013.82 1013.87 1013.62 1013.51 1013.57 1014.11 1015.00 1015.20 1015.39 1015.01 1015.35 1015.47 1015.63 1016.04 1016.38 1016.64 1016.19 1015.88 1016.39
1020.81 1020.62 1020.57 1020.20 1020.04 1019.85 1019.48 1019.11 1018.80 1018.50 1018.14 1017.64 1017.26 1017.14 1016.75 1016.42 1016.33 1015.94 1016.15 1016.25 1016.10 1016.38 1016.05 1015.57 1015.60 1015.38 1015.05 1014.74 1014.44 1014.27 1014.05 1014.28 1014.29 1015.00 1015.68 1016.55 1015.76 1015.67 1015.51 1015.40 1015.79 1016.07 1016.47 1016.58 1016.21 1015.83 1016.54
1020.47 1020.40 1020.41 1020.08 1019.80 1019.61 1019.27 1018.96 1018.62 1018.31 1017.94 1017.46 1017.10 1016.96 1016.56 1016.32 1016.08 1015.96 1015.97 1016.06 1015.93 1016.01 1016.20 1015.71 1015.52 1015.38 1015.33 1015.10 1014.85 1014.63 1014.61 1015.10 1015.18 1015.98 1016.67 1015.97 1015.30 1015.38 1015.35 1015.63 1016.06 1016.39 1016.42 1016.71 1016.62 1016.57 1016.83
1020.12 1020.15 1020.18 1019.92 1019.71 1019.33 1019.04 1018.82 1018.42 1018.03 1017.69 1017.30 1016.91 1016.64 1016.36 1016.10 1016.25 1016.00 1015.97 1015.77 1016.05 1015.96 1016.20 1016.08 1015.62 1015.58 1015.42 1015.07 1015.21 1014.91 1014.96 1015.19 1015.30 1016.52 1016.40 1016.03 1015.46 1015.34 1015.52 1015.83 1015.96 1016.53 1016.59 1016.73 1017.14 1017.34 1017.73
1019.85 1019.98 1019.86 1019.74 1019.51 1019.25 1018.85 1018.57 1018.12 1017.73 1017.43 1017.03 1016.61 1016.27 1016.06 1015.84 1016.13 1016.18 1015.82 1015.75 1015.87 1016.15 1016.31 1016.29 1015.82 1015.66 1015.29 1015.32 1015.36 1015.27 1014.94 1014.64 1015.45 1015.88 1016.50 1016.35 1015.52 1015.51 1015.74 1015.79 1015.61 1016.55 1016.67 1017.15 1017.88 1018.44 1018.45
1019.65 1019.77 1019.67 1019.58 1019.36 1019.04 1018.60 1018.22 1017.83 1017.45 1017.11 1016.61 1016.14 1015.80 1015.70 1015.78 1015.95 1015.82 1015.62 1015.66 1016.02 1016.68 1016.05 1016.03 1015.86 1015.68 1015.43 1015.23 1015.27 1015.30 1015.17 1014.95 1015.67 1015.70 1016.14 1016.04 1016.04 1015.96 1015.96 1015.83 1015.79 1016.59 1017.10 1018.03 1018.81 1019.53 1019.72
1019.49 1019.59 1019.49 1019.37 1019.13 1018.83 1018.38 1018.01 1017.63 1017.19 1016.71 1016.22 1015.65 1015.24 1015.32 1015.86 1015.72 1015.61 1015.74 1015.96 1016.60 1016.26 1015.69 1015.99 1015.75 1015.62 1015.25 1015.12 1014.94 1014.92 1015.33 1015.81 1015.85 1016.02 1016.05 1016.24 1016.31 1016.39 1016.12 1016.25 1016.37 1016.64 1017.61 1019.46 1020.46 1021.01 1020.68
1019.33 1019.35 1019.31 1019.19 1018.92 1018.60 1018.21 1017.90 1017.41 1016.88 1016.32 1015.84 1015.36 1015.14 1015.34 1015.66 1015.60 1015.73 1015.90 1016.30 1016.22 1015.70 1015.08 1015.31 1015.48 1015.49 1015.22 1014.90 1015.02 1015.04 1015.49 1015.69 1015.74 1015.37 1016.01 1016.25 1016.83 1016.75 1016.74 1016.54 1016.72 1017.28 1017.79 1019.43 1020.60 1021.61 1021.15
1019.11 1019.13 1019.05 1018.98 1018.70 1018.38 1018.03 1017.68 1017.10 1016.56 1016.05 1015.50 1015.42 1015.79 1016.02 1015.77 1015.74 1015.80 1016.35 1016.23 1015.84 1015.28 1014.77 1014.72 1015.40 1015.17 1015.22 1014.78 1014.87 1015.20 1015.19 1015.18 1015.11 1014.96 1015.56 1016.11 1016.92 1017.19 1017.15 1016.89 1016.92 1017.62 1018.32 1019.30 1020.77 1022.27 1021.85
1018.85 1018.90 1018.79 1018.76 1018.52 1018.23 1017.85 1017.40 1016.88 1016.27 1015.78 1015.43 1015.84 1016.15 1016.21 1015.90 1015.76 1016.17 1016.38 1015.93 1015.42 1014.55 1014.08 1014.40 1014.25 1014.17 1014.48 1014.45 1014.72 1014.83 1014.98 1014.57 1014.79 1015.00 1015.27 1016.18 1016.98 1017.44 1017.44 1017.24 1017.30 1017.30 1018.18 1019.49 1020.77 1021.92 1021.72
1018.52 1018.60 1018.59 1018.53 1018.37 1018.08 1017.66 1017.22 1016.67 1016.06 1015.55 1015.37 1016.06 1016.25 1016.20 1015.97 1016.00 1016.05 1016.34 1015.54 1014.55 1013.76 1013.27 1013.29 1013.28 1013.38 1013.81 1014.16 1014.26 1014.55 1014.90 1014.73 1014.64 1015.34 1015.38 1015.86 1016.33 1017.80 1017.54 1017.69 1017.61 1017.93 1018.34 1019.28 1019.99 1021.00 1021.19
1018.12 1018.30 1018.30 1018.41 1018.18 1017.75 1017.50 1017.06 1016.45 1015.81 1015.27 1015.52 1016.26 1016.48 1016.23 1016.30 1016.41 1016.00 1015.64 1014.80 1013.76 1013.29 1012.94 1012.62 1012.61 1012.64 1013.32 1013.83 1014.20 1014.53 1014.61 1014.48 1014.35 1014.71 1015.28 1015.70 1016.67 1017.60 1017.84 1017.62 1017.67 1017.86 1018.27 1018.71 1019.57 1020.86 1021.02
1017.78 1017.95 1018.03 1018.20 1017.94 1017.49 1017.37 1016.94 1016.21 1015.52 1015.06 1015.91 1016.71 1016.88 1016.49 1016.46 1016.26 1015.89 1015.02 1014.11 1013.63 1012.99 1012.87 1012.60 1012.65 1012.67 1012.67 1013.46 1014.08 1014.19 1014.26 1014.31 1014.35 1014.64 1014.87 1015.60 1016.86 1017.97 1018.34 1018.31 1017.93 1018.00 1018.28 1018.66 1019.05 1019.47 1019.21
1017.48 1017.58 1017.85 1017.97 1017.68 1017.38 1017.23 1016.72 1015.99 1015.32 1015.00 1015.60 1017.20 1017.36 1017.00 1016.49 1016.01 1015.57 1014.82 1014.10 1013.57 1013.17 1013.06 1012.76 1012.73 1012.69 1012.85 1013.50 1013.83 1014.41 1014.45 1014.40 1014.50 1014.58 1014.85 1015.50 1016.67 1017.29 1017.56 1017.37 1017.38 1017.98 1017.76 1018.24 1018.66 1018.70 1018.02
1017.11 1017.37 1017.67 1017.65 1017.43 1017.33 1017.08 1016.55 1015.90 1015.24 1014.95 1015.66 1017.44 1017.75 1017.47 1017.00 1016.25 1015.70 1014.90 1014.39 1013.77 1013.50 1013.22 1013.22 1013.12 1013.33 1013.56 1013.95 1014.25 1014.59 1014.70 1014.71 1014.86 1015.14 1015.80 1016.42 1017.39 1017.69 1017.68 1017.61 1017.62 1017.57 1017.53 1017.61 1017.61 1017.29 1016.64
1016.84 1017.16 1017.50 1017.42 1017.36 1017.23 1017.05 1016.52 1015.86 1015.33 1015.17 1016.59 1018.23 1018.40 1017.83 1017.09 1016.38 1015.96 1015.59 1015.28 1014.63 1014.31 1014.03 1013.99 1014.03 1013.96 1013.79 1014.50 1014.83 1014.84 1014.77 1014.98 1015.20 1015.92 1016.56 1017.05 1017.87 1018.18 1018.23 1017.72 1017.56 1017.40 1016.91 1016.74 1016.44 1016.05 1016.04
1016.59 1016.98 1017.31 1017.24 1017.27 1017.25 1017.06 1016.63 1016.09 1015.58 1015.43 1017.67 1018.82 1018.68 1018.39 1017.78 1016.85 1016.41 1016.65 1016.27 1015.73 1015.21 1014.98 1014.86 1014.56 1014.30 1014.66 1015.11 1015.11 1015.00 1014.99 1014.98 1015.05 1015.66 1016.74 1017.59 1018.41 1019.29 1019.46 1018.76 1018.18 1017.47 1015.42 1015.47 1015.38 1014.97 1014.72
1016.34 1016.84 1017.05 1017.11 1017.24 1017.28 1017.13 1016.78 1016.35 1016.16 1016.30 1017.64 1018.95 1018.96 1018.66 1018.86 1018.13 1017.76 1017.37 1017.14 1016.68 1016.31 1015.78 1015.41 1015.10 1014.89 1015.38 1015.05 1015.09 1015.09 1015.18 1015.30 1015.52 1016.00 1016.33 1017.62 1018.68 1019.45 1019.91 1019.41 1018.21 1015.34 1014.60 1014.46 1014.58 1014.22 1013.99
1015.98 1016.52 1016.83 1016.92 1017.26 1017.27 1017.19 1016.90 1016.64 1016.59 1016.77 1017.66 1018.73 1019.08 1019.17 1019.56 1019.41 1018.78 1018.47 1018.00 1017.16 1016.81 1016.65 1016.13 1016.07 1016.17 1015.67 1015.38 1015.72 1015.96 1016.13 1015.98 1015.97 1016.20 1016.62 1017.08 1018.28 1019.51 1019.80 1019.37 1016.92 1014.82 1014.41 1014.23 1014.17 1013.63 1013.13
1015.67 1016.15 1016.59 1016.87 1017.16 1017.33 1017.29 1017.03 1016.93 1016.85 1017.01 1017.72 1018.63 1018.69 1019.13 1019.35 1020.42 1019.94 1019.42 1018.85 1018.65 1018.14 1017.34 1016.99 1016.60 1016.26 1015.99 1016.02 1016.27 1016.70 1016.82 1016.57 1016.57 1016.56 1016.56 1017.16 1017.58 1018.65 1019.40 1018.78 1016.93 1014.88 1013.86 1013.52 1013.63 1013.33 1012.72
1015.43 1015.91 1016.44 1016.75 1017.02 1017.36 1017.31 1017.08 1016.97 1016.99 1017.18 1017.63 1018.71 1018.59 1018.96 1020.08 1020.76 1020.24 1020.04 1019.81 1019.73 1019.50 1019.18 1018.59 1018.09 1017.32 1016.68 1016.92 1017.22 1017.44 1017.23 1017.01 1017.09 1017.01 1017.03 1017.29 1017.69 1018.13 1018.39 1017.80 1015.96 1014.33 1013.72 1013.47 1013.62 1013.70 1012.51
1015.15 1015.69 1016.17 1016.67 1017.04 1017.31 1017.42 1017.32 1017.13 1017.21 1017.32 1017.68 1018.84 1018.58 1019.19 1020.41 1021.18 1020.79 1020.47 1020.55 1020.42 1020.34 1020.34 1019.91 1019.58 1018.75 1018.34 1018.14 1018.17 1018.06 1018.04 1017.87 1017.72 1017.29 1017.12 1017.17 1017.42 1017.60 1017.52 1017.11 1015.82 1014.00 1013.76 1013.66 1013.27 1012.66 1012.41
1014.93 1015.54 1016.04 1016.57 1016.92 1017.27 1017.51 1017.56 1017.36 1017.51 1017.51 1017.73 1018.78 1018.82 1019.02 1020.08 1021.32 1021.20 1020.95 1020.84 1020.51 1020.29 1019.95 1019.81 1019.94 1019.92 1019.95 1019.57 1019.46 1019.00 1018.79 1018.69 1018.69 1018.26 1017.44 1017.45 1017.05 1017.15 1017.18 1016.05 1014.79 1014.35 1014.00 1013.28 1013.43 1013.18 1012.47
Wind_Speed
11 11 13 14 15 15 16 16 16 16 18 19 13 16 15 15 14 15 12 11 11 10 9 7 3 5 4 2 4 3 11 10 8 8 11 7 6 5 7 8 8 5 13 13 9 7 4
11 11 12 13 13 14 15 14 14 17 16 17 17 12 14 14 13 12 12 10 9 9 9 6 5 1 2 2 3 6 12 9 9 11 11 6 8 7 4 4 9 7 7 12 12 9 5
10 10 11 12 14 15 15 17 16 15 16 15 16 18 13 12 13 12 11 9 8 8 8 6 3 1 1 4 4 5 12 4 6 15 11 5 5 6 3 3 4 2 10 8 8 8 3
9 10 10 12 13 13 15 16 15 18 18 14 16 15 17 14 12 12 11 12 6 5 6 6 5 2 3 3 1 7 5 3 9 12 10 7 4 5 3 3 6 5 4 6 5 10 4
9 10 10 11 13 14 15 15 15 16 17 18 14 16 14 17 14 10 12 11 5 4 4 4 4 2 3 5 3 6 3 2 9 6 6 5 4 3 2 8 3 3 5 5 5 11 9
9 10 10 10 12 13 15 16 16 17 17 17 16 15 15 14 14 12 12 4 4 4 3 1 2 2 5 4 4 5 4 4 5 9 5 6 3 4 3 8 15 7 5 4 7 12 7
9 9 10 10 12 14 15 16 17 17 17 17 16 15 16 14 13 12 6 3 4 3 3 2 2 2 3 7 1 5 4 3 2 5 2 11 3 15 7 5 1 9 5 5 2 9 6
9 9 10 10 11 14 15 17 17 17 17 18 17 15 15 15 12 10 3 2 2 2 2 1 4 3 2 3 2 4 3 4 2 6 6 2 8 6 6 7 6 6 7 5 1 6 7
8 8 10 10 12 13 16 17 18 19 18 18 17 16 16 15 10 3 3 2 1 4 1 2 1 1 2 3 2 3 3 4 9 5 6 3 7 9 6 5 8 3 8 4 6 4 2
7 6 9 10 12 13 15 17 18 18 18 18 17 16 16 13 3 1 1 4 1 1 2 3 2 1 1 2 4 3 2 1 4 6 7 3 3 8 7 5 6 4 4 5 7 6 5
6 6 7 8 11 14 16 16 18 18 19 18 19 18 14 7 2 1 2 5 2 2 0 2 1 4 3 3 4 4 2 3 6 7 2 1 3 11 7 7 4 3 5 6 3 4 3
6 5 6 7 11 14 16 17 18 19 19 19 20 18 9 1 1 3 4 4 0 7 2 3 1 1 2 1 2 4 2 4 1 5 4 3 0 3 4 4 5 7 7 6 4 3 1
6 5 5 8 12 14 16 16 18 19 19 21 21 16 4 3 3 5 3 3 4 5 3 5 4 3 2 1 3 2 3 2 2 3 2 3 2 2 2 6 3 3 6 3 4 3 5
6 4 4 8 11 15 16 18 18 18 21 21 15 7 6 2 2 5 1 4 7 4 2 5 6 4 1 3 4 3 4 3 1 2 4 2 3 3 4 3 7 3 5 6 5 4 3
7 3 4 7 11 14 16 17 18 19 20 18 4 2 2 1 3 0 1 5 6 6 1 5 6 5 1 2 4 4 3 1 4 2 4 3 3 1 4 2 2 3 3 4 7 3 4
7 3 3 7 10 13 16 17 18 19 19 11 2 2 2 2 3 2 2 2 1 3 4 5 3 3 4 7 6 6 7 2 3 3 1 3 6 2 2 2 4 4 7 3 3 3 3
8 4 2 6 9 12 16 17 18 19 18 4 3 2 2 1 1 1 2 4 3 5 3 2 1 4 4 6 5 5 9 1 4 4 3 3 3 2 2 3 6 3 1 3 5 4 5
9 4 2 6 8 12 14 16 18 19 14 7 2 1 1 1 2 1 2 4 2 3 1 1 1 3 5 6 5 5 7 1 6 7 5 2 4 3 2 2 3 2 3 4 5 3 1
10 6 3 3 7 11 14 16 18 19 9 4 2 1 1 1 1 2 4 1 0 4 4 4 4 4 3 3 4 1 2 2 7 4 7 6 3 4 2 3 2 3 5 3 3 4 8
12 8 5 3 8 11 13 15 17 18 9 5 3 1 1 2 1 2 1 2 2 1 2 3 2 3 3 5 6 3 3 2 1 3 10 4 3 5 7 5 4 5 9 10 4 5 5
13 10 6 4 8 9 12 16 19 18 9 6 3 1 1 2 2 3 1 1 2 2 3 7 4 5 1 3 3 3 3 4 6 5 4 2 3 3 4 4 5 3 5 13 14 16 14
14 11 7 6 7 8 12 15 18 20 8 6 3 2 2 1 2 1 5 5 4 4 5 4 5 5 3 4 2 4 5 2 4 2 3 2 1 2 5 3 2 4 8 10 19 21 16
16 12 9 7 6 7 11 14 17 19 7 4 1 1 1 4 3 2 2 3 4 4 4 4 3 3 6 3 2 2 3 1 3 8 4 3 5 3 4 3 3 8 14 13 5 7 15
17 13 10 8 6 7 9 12 15 16 10 4 1 2 2 2 4 4 3 2 5 6 2 3 6 3 1 4 2 2 6 6 5 4 4 5 4 3 3 2 1 7 2 6 13 14 14
19 15 12 10 7 7 8 11 14 14 11 5 2 3 2 3 1 4 7 4 3 4 4 2 4 2 5 2 4 4 5 2 1 2 2 3 5 3 3 3 8 3 1 4 5 6 5
20 17 14 11 9 7 7 10 12 13 9 5 2 2 3 5 2 3 2 4 2 4 2 3 3 5 3 3 3 3 3 3 1 1 3 3 4 4 2 1 5 5 2 3 4 4 4
21 18 15 12 9 7 7 9 10 11 8 5 2 2 4 5 3 3 3 1 2 3 2 3 6 8 4 2 3 1 2 2 2 4 4 3 2 4 4 3 7 6 5 4 2 5 5
22 19 16 12 9 6 6 9 10 9 7 4 1 3 4 4 2 4 4 4 3 3 2 5 2 3 4 4 2 1 1 1 2 2 4 6 5 4 1 2 7 3 1 2 6 5 4
22 19 16 13 10 7 7 7 8 7 6 5 3 2 2 5 3 1 2 2 1 1 2 1 3 2 1 1 2 2 2 2 0 3 1 2 4 1 7 6 4 3 5 6 3 6 6
Wind_Direction
337 346 351 355 354 354 352 351 353 344 343 343 356 352 353 358 359 359 4 359 16 9 20 15 50 106 67 112 267 329 316 307 274 229 199 166 139 172 195 177 168 194 180 186 207 130 74
326 341 345 347 355 351 349 350 349 342 343 341 344 351 347 348 356 -0 354 -0 11 10 13 38 64 79 71 239 276 278 291 300 200 178 196 174 170 194 204 172 187 179 171 148 159 146 148
319 332 340 343 351 350 347 349 348 340 344 344 342 340 343 341 345 351 354 346 355 3 355 2 341 9 185 247 205 329 294 256 184 179 171 183 150 185 126 128 161 170 154 150 156 134 133
312 321 336 338 343 342 346 347 350 342 343 345 342 339 337 340 336 338 337 333 336 342 341 343 353 6 257 286 313 262 259 273 145 175 186 146 102 119 160 110 94 140 139 165 160 161 113
305 312 324 334 336 344 336 341 343 340 340 344 345 335 335 328 335 331 328 324 338 317 327 1 16 37 329 304 11 316 335 198 127 116 169 143 108 148 78 130 82 207 160 155 160 187 147
293 304 315 329 334 335 335 340 338 338 339 342 342 339 332 324 326 332 333 316 330 16 325 283 246 4 342 323 305 327 355 26 151 119 92 159 168 148 135 170 194 159 106 182 158 191 167
286 300 308 323 330 328 331 333 333 338 337 336 339 336 330 325 321 323 356 19 17 351 20 147 280 278 315 308 7 8 347 53 114 127 85 129 243 195 154 118 174 121 110 149 98 171 153
276 294 302 318 328 325 329 330 333 336 333 332 334 337 328 323 319 318 86 120 160 170 325 207 252 262 249 308 36 5 27 53 200 120 42 138 220 165 147 98 120 111 123 169 89 148 150
270 289 299 315 323 328 328 330 334 331 332 329 332 335 325 322 314 346 155 193 136 130 25 321 246 355 296 346 61 8 62 112 116 82 163 191 161 145 134 109 113 43 137 156 156 97 14
256 280 297 317 323 324 328 332 333 330 331 329 329 329 326 321 327 251 243 154 110 101 75 169 175 79 313 334 55 59 37 81 100 117 132 3 309 133 139 123 122 115 170 129 142 128 189
243 272 292 319 321 327 330 334 332 335 332 328 328 326 321 289 198 196 209 139 150 66 13 110 41 309 275 71 155 17 309 326 99 137 161 172 190 144 154 172 116 144 147 118 97 92 108
228 263 292 322 318 326 333 337 337 335 331 330 330 324 310 84 186 253 148 124 276 46 14 106 52 200 75 359 108 142 153 36 48 105 90 73 95 76 162 159 108 167 89 59 70 92 353
218 250 295 314 328 336 338 338 339 337 334 337 334 327 211 150 212 159 145 77 37 79 196 135 119 189 226 103 90 103 73 86 153 122 75 44 51 79 50 98 55 73 78 35 24 14 222
210 236 300 323 336 339 343 340 340 338 341 341 346 18 141 181 128 131 101 58 72 241 3 95 122 130 152 163 66 78 149 141 174 109 107 119 122 44 359 114 159 166 129 147 167 194 242
201 216 302 324 344 346 344 341 343 342 345 342 24 12 85 288 157 218 47 53 196 199 188 104 134 159 183 262 124 150 238 189 168 203 115 108 64 59 38 358 94 216 150 165 105 22 47
194 213 305 336 353 351 348 346 346 347 348 1 91 58 10 302 183 42 62 261 229 220 141 138 228 189 143 168 145 176 200 208 141 145 160 170 112 28 99 53 20 128 158 81 7 123 270
187 196 331 353 353 355 351 350 351 352 353 68 63 87 289 169 33 118 170 244 273 234 177 175 162 148 118 153 177 164 189 167 161 132 106 132 78 46 134 168 171 102 118 71 121 135 179
179 172 31 1 360 1 358 357 357 359 6 62 85 104 286 71 225 37 222 208 325 343 120 303 28 77 143 171 143 184 187 178 178 158 127 151 110 120 44 12 46 78 172 159 132 232 208
168 155 90 18 9 14 4 1 4 9 39 114 81 106 50 232 292 283 287 258 358 31 4 24 30 25 53 100 102 80 107 318 154 140 152 175 127 116 26 325 6 223 180 205 109 84 197
164 145 122 53 31 23 7 3 11 18 73 90 86 90 343 247 295 243 343 358 101 55 59 8 30 48 60 47 25 121 94 74 72 78 79 81 129 159 182 194 134 190 203 199 166 221 236
160 149 136 83 50 27 13 12 15 20 87 94 47 232 203 208 284 331 283 330 348 88 15 19 32 42 24 99 56 87 64 55 31 78 62 117 155 148 235 200 158 219 226 205 210 230 227
159 148 143 101 68 36 21 22 22 22 104 79 110 102 346 239 256 231 355 7 47 350 28 7 54 10 43 84 52 186 126 148 178 135 142 2 230 72 335 344 232 270 245 226 227 237 252
158 148 144 112 87 46 32 32 34 26 70 92 347 304 122 319 332 85 45 36 12 318 38 56 296 92 50 23 306 298 274 221 173 144 136 127 128 81 271 355 353 293 235 216 211 230 228
157 154 141 122 105 62 46 48 48 56 70 110 135 107 76 355 50 36 10 9 10 347 35 7 6 73 316 320 225 114 55 85 86 60 123 129 103 88 216 28 294 241 188 192 212 241 231
158 156 142 131 111 86 61 60 57 69 81 86 131 101 89 88 350 27 21 350 16 338 31 63 8 329 316 353 63 43 353 44 70 140 126 125 121 102 133 202 289 330 117 143 173 279 225
160 154 148 135 120 109 78 68 63 62 97 92 96 129 101 121 19 297 3 8 46 347 33 27 347 314 3 81 87 123 197 215 220 102 86 126 102 115 153 170 251 248 310 194 148 297 233
160 156 147 146 137 130 100 83 70 62 76 102 95 99 92 98 348 28 77 10 1 16 345 336 342 353 357 49 87 123 275 218 153 182 173 157 184 180 216 246 287 252 276 161 78 252 299
164 158 155 152 145 136 105 94 77 61 74 99 107 51 103 93 3 13 17 37 15 51 47 329 324 353 12 61 79 126 107 313 349 216 187 179 159 216 163 206 287 201 35 164 228 288 269
166 164 161 155 154 141 125 105 77 57 83 97 76 17 68 85 145 309 345 358 281 192 144 20 150 54 357 339 64 26 30 35 316 283 14 272 190 206 185 218 253 322 274 273 332 285 294